Theta_e
286 286 285 285 285 285 285 285 285 285 284 285 284 283 283 282 282 282 281 280 280 279 279 278 278 278 278 277 277 277 276 276 277 277 277 277 277 277 277 277 277 277 277 277 277 277 277 278 278 278 278 278 278 278 278 278 279 278 278 278 278 278
287 286 285 285 285 285 285 285 284 284 284 284 284 283 283 282 281 281 279 279 279 278 278 278 278 277 277 277 276 276 276 276 276 276 276 276 277 277 276 276 276 276 276 276 276 276 276 277 277 277 277 277 277 277 277 277 278 277 277 277 278 278
286 286 286 285 285 285 285 284 283 284 284 283 283 282 281 281 280 280 279 279 278 277 277 277 277 276 276 276 276 276 276 276 276 276 276 276 275 276 275 275 275 275 275 275 275 275 275 276 276 276 276 275 275 276 276 276 276 276 276 276 276 277
286 286 285 285 284 284 283 283 283 283 283 283 283 282 281 280 279 279 278 278 278 277 277 276 276 276 276 275 275 275 275 275 275 275 275 274 275 275 274 274 274 275 275 275 275 275 275 275 275 275 275 274 274 274 275 275 275 274 274 274 274 274
285 285 284 284 284 283 283 283 282 282 282 282 282 281 280 280 279 279 278 277 277 277 276 276 276 275 275 275 275 275 275 275 275 275 274 274 274 274 274 274 274 274 274 274 274 274 273 273 273 273 273 272 272 272 272 273 273 272 272 272 272 272
285 284 283 283 283 282 282 282 282 282 282 281 281 280 279 279 278 278 277 277 276 276 276 275 275 275 274 274 275 274 274 274 274 274 273 273 273 273 273 273 273 273 272 272 272 272 272 271 271 271 271 271 271 270 270 271 271 271 271 271 271 271
283 283 283 283 282 282 282 282 282 281 281 281 280 280 279 278 278 277 277 276 275 275 275 275 275 274 274 274 274 274 274 273 273 273 272 272 272 272 272 272 272 271 271 270 270 270 270 270 270 269 269 269 270 269 269 269 269 270 270 270 270 271
283 283 283 282 282 282 281 281 281 281 281 280 280 279 278 277 277 277 276 276 275 274 274 274 274 274 274 274 273 273 273 273 272 272 272 271 271 270 270 270 270 270 269 269 269 269 269 269 269 269 268 269 269 269 269 269 269 269 269 269 269 269
283 283 283 282 282 282 281 281 281 280 280 279 279 278 277 277 276 276 275 275 274 274 274 274 274 274 273 273 273 273 272 272 271 270 270 270 269 268 268 269 268 268 268 268 268 268 268 268 268 268 268 268 268 269 268 268 269 269 268 268 269 269
283 282 282 282 281 281 281 281 281 280 279 278 278 277 277 276 275 275 274 274 274 274 274 274 274 273 273 273 272 271 271 270 269 269 269 268 267 267 267 267 267 267 267 267 268 268 268 268 268 268 268 268 268 268 268 268 268 268 268 268 269 269
283 283 282 282 281 281 280 280 280 280 279 278 277 276 276 275 275 274 274 273 273 274 274 273 273 272 272 271 271 270 269 268 268 267 267 266 266 266 266 266 266 266 266 267 267 268 268 268 268 268 268 268 268 269 269 269 269 270 269 270 270 270
284 283 282 281 281 280 280 280 279 279 278 277 276 276 275 275 274 273 273 273 273 273 273 272 272 271 271 270 269 269 268 267 266 266 265 265 265 266 266 266 266 266 266 267 267 268 268 268 268 269 271 272 270 270 270 270 270 270 270 269 269 270
284 283 282 281 281 280 280 280 279 278 278 276 275 275 274 274 273 273 273 273 273 272 272 271 271 270 269 269 268 267 266 265 265 264 264 264 264 264 265 265 266 266 267 267 267 267 267 268 268 270 272 273 274 272 270 269 270 270 270 270 270 269
284 283 282 282 281 280 280 279 278 278 277 276 275 274 273 273 273 272 272 273 272 271 271 271 270 269 268 267 266 265 265 264 263 263 264 264 264 264 265 265 266 266 267 267 267 267 267 267 269 271 272 273 274 274 271 271 270 270 270 270 270 270
284 284 283 282 281 280 280 279 278 277 276 275 275 273 272 272 272 272 271 271 271 270 270 269 268 267 266 266 265 264 263 263 263 263 263 263 264 264 264 265 265 266 266 266 266 266 266 267 269 271 272 273 274 275 274 271 271 271 271 271 271 271
285 285 284 283 282 281 281 279 278 277 276 275 273 272 271 271 271 271 270 270 270 269 269 267 267 266 266 265 264 263 263 262 262 263 264 264 264 264 264 265 265 265 265 266 265 266 266 266 268 271 273 273 274 275 274 272 271 271 271 271 271 271
286 284 283 282 281 281 279 278 278 276 274 273 272 271 270 270 270 270 270 269 269 268 267 266 266 265 265 264 263 262 262 262 263 263 264 264 264 264 264 264 264 264 264 264 265 265 265 266 270 272 273 273 274 275 275 271 271 270 270 271 271 271
285 284 283 282 281 279 278 277 276 275 273 272 271 270 270 270 269 269 269 268 268 267 266 265 265 264 263 263 262 262 262 263 263 262 263 263 264 264 265 264 264 264 264 264 264 264 264 266 270 271 272 273 274 275 271 271 271 271 271 271 271 271
285 284 282 281 280 278 277 276 274 273 271 270 269 269 269 269 269 268 268 267 267 266 266 265 264 263 262 262 261 261 261 262 262 263 264 263 263 263 263 263 264 264 264 264 264 264 264 265 268 271 272 273 274 273 271 271 271 270 270 270 271 271
285 283 282 280 278 277 275 274 273 271 269 269 269 268 268 268 268 268 267 266 266 265 264 264 263 262 262 261 261 261 262 262 263 263 263 262 262 263 263 263 263 264 264 264 264 264 264 265 268 271 273 273 274 274 271 271 270 270 270 270 271 271
283 281 279 277 275 274 273 272 271 270 269 269 268 268 267 267 268 267 266 266 265 265 263 263 262 262 261 260 261 261 260 261 262 262 263 263 263 263 263 263 263 263 264 264 264 266 266 266 268 271 272 273 275 273 271 271 270 270 270 270 270 271
279 278 277 276 275 273 272 272 271 270 269 268 268 267 267 267 267 267 266 266 264 263 262 262 261 261 260 260 260 260 261 262 262 262 262 262 263 263 263 263 263 262 263 264 265 266 267 267 268 269 273 274 275 275 272 272 271 270 270 271 271 270
279 278 277 276 273 271 271 271 270 269 269 268 267 267 268 268 267 265 265 264 262 262 261 261 260 259 260 260 260 261 261 262 262 261 261 261 262 262 262 261 262 263 264 265 267 267 267 268 268 269 273 274 275 275 275 272 272 272 271 271 271 271
276 276 275 274 272 271 270 270 269 269 268 267 267 268 268 266 265 264 263 262 261 260 260 260 260 259 259 259 260 260 260 261 260 260 260 262 261 260 260 261 262 263 264 266 267 267 268 269 270 269 272 274 274 275 276 273 272 273 272 271 270 270
275 274 273 272 271 270 270 270 269 268 267 267 267 266 265 264 263 262 262 261 259 259 258 259 258 259 259 259 259 259 259 260 260 259 260 260 260 260 261 262 263 264 264 265 266 267 268 268 269 271 271 273 274 276 276 276 274 276 272 270 269 269
274 272 270 269 269 269 270 270 269 267 267 267 264 263 262 262 261 261 260 258 258 258 258 258 258 259 259 259 259 259 259 259 259 260 261 260 261 261 262 263 263 264 264 264 265 266 267 268 269 271 272 272 274 275 276 276 276 275 272 271 270 270
272 270 268 268 268 268 269 270 268 267 266 264 263 262 261 260 260 259 258 258 258 258 258 258 259 259 258 258 259 259 260 258 259 260 261 260 261 262 262 262 263 263 264 265 265 265 266 268 268 269 271 273 274 275 275 275 275 274 274 270 270 271
270 268 266 266 267 267 268 269 268 266 265 262 262 261 260 259 258 258 257 257 257 257 257 257 257 257 257 258 259 259 260 259 260 260 261 261 262 262 262 262 263 264 264 264 265 265 266 267 268 269 269 271 272 272 273 273 273 272 273 272 271 273
268 266 266 265 266 267 267 267 268 266 263 261 261 260 259 258 258 257 257 257 257 256 257 258 259 258 257 257 259 259 259 260 260 260 260 261 262 262 262 262 264 264 264 264 264 265 266 266 267 268 269 270 270 270 270 269 268 271 271 269 269 270
267 266 265 264 265 266 266 266 264 263 262 261 260 259 258 258 258 257 257 257 257 257 257 258 257 257 258 258 258 259 260 260 260 260 261 261 261 261 262 264 264 264 264 264 265 265 265 266 267 267 268 269 269 269 269 268 267 267 267 267 268 268
267 266 265 264 265 264 264 263 261 261 261 260 258 258 258 258 257 257 256 257 257 257 257 257 257 258 258 257 257 258 259 259 259 260 261 262 263 264 264 265 265 265 265 265 265 265 264 266 266 267 272 270 272 270 268 267 267 267 267 269 272 267
267 266 265 264 264 263 262 260 260 260 260 258 258 258 258 257 256 256 257 257 258 257 257 257 256 256 256 257 258 258 258 259 262 262 262 262 266 267 268 268 266 266 266 266 266 267 266 266 267 272 273 272 272 272 272 271 271 271 269 270 270 267
266 265 264 263 262 262 260 259 259 258 258 258 258 258 257 257 257 257 257 257 257 257 257 257 257 257 257 257 257 257 258 259 260 263 264 266 266 266 267 268 268 268 269 267 266 267 270 271 272 272 272 272 272 272 271 271 270 270 271 270 265 263
265 264 263 262 261 260 259 258 258 257 257 258 258 258 257 257 258 257 257 258 257 257 257 258 257 257 257 257 257 257 258 258 259 260 264 265 264 266 266 267 267 268 268 269 268 267 266 269 270 271 271 271 271 271 271 270 269 269 270 269 266 261
265 264 263 262 260 259 258 258 257 257 257 257 257 257 257 258 259 258 257 257 257 256 256 257 257 257 257 256 256 256 257 257 257 258 258 260 263 264 265 266 266 267 267 268 268 269 269 270 270 270 270 270 270 270 270 269 268 268 269 267 261 260
265 263 262 261 259 259 258 257 257 257 257 257 257 257 258 258 258 257 257 257 257 257 257 257 256 256 256 256 256 256 256 256 255 254 254 255 256 258 260 263 264 265 266 266 267 268 269 269 269 269 269 269 269 269 269 267 263 266 266 264 259 259
264 262 261 260 259 258 257 257 256 257 256 256 256 257 257 257 257 256 256 255 256 257 257 257 257 256 255 255 255 255 255 255 254 254 254 254 253 253 254 255 256 260 264 263 264 266 268 268 268 268 268 268 269 269 267 264 260 259 259 259 259 259
263 261 260 259 258 258 257 257 256 256 256 256 256 256 256 256 256 256 256 256 255 256 256 255 255 255 255 255 255 255 255 254 255 254 253 253 253 252 253 254 255 255 258 263 264 266 266 267 267 267 267 267 267 267 265 258 258 258 258 258 258 258
Wind_Speed
13 14 14 14 13 14 14 14 13 13 13 15 15 16 15 14 11 10 9 10 7 7 9 9 8 6 6 5 5 6 7 8 7 8 8 7 8 7 7 8 8 8 8 8 9 9 10 10 11 11 11 11 12 12 13 15 14 15 16 16 16 16
13 13 14 15 15 14 13 14 13 15 15 15 14 12 12 12 12 11 11 9 8 7 7 7 6 6 6 6 6 6 7 7 7 8 8 8 7 7 7 7 8 8 8 8 8 9 10 10 10 11 12 12 13 14 13 13 15 16 17 17 17 16
10 11 12 11 11 11 11 13 16 15 13 15 15 16 14 13 11 11 10 9 8 9 8 8 7 7 6 6 7 7 7 6 7 7 6 6 7 6 7 7 8 8 8 9 9 9 10 11 11 10 11 12 13 14 15 15 15 17 17 17 19 18
9 10 10 10 11 12 14 13 14 15 15 15 14 13 13 13 12 11 10 8 8 9 8 8 6 6 6 6 6 7 6 6 6 6 6 7 7 6 7 8 7 7 8 9 10 10 11 11 12 12 11 12 13 14 12 13 15 16 18 18 19 18
9 10 12 13 14 13 14 13 15 15 16 15 13 14 13 12 12 10 9 9 8 9 7 7 7 6 7 7 6 6 6 5 6 5 6 6 6 6 6 7 7 8 9 9 10 10 11 11 11 11 11 12 13 14 14 13 15 17 18 19 19 19
8 9 12 13 13 14 15 14 14 14 14 13 13 14 15 13 11 10 10 9 8 8 8 7 7 7 6 6 5 6 5 5 5 5 5 6 5 6 7 7 8 8 9 9 10 10 10 11 11 11 11 12 13 13 14 14 15 16 17 19 19 19
11 12 12 12 12 12 13 14 15 14 14 13 14 13 13 12 11 11 10 9 9 9 8 8 7 7 6 6 5 5 5 5 4 4 5 5 6 6 6 7 7 7 8 8 9 10 10 11 11 12 12 12 12 13 14 15 15 16 17 18 18 18
10 10 12 12 12 13 14 14 14 14 13 14 13 13 13 12 11 10 10 9 9 9 9 8 7 7 7 6 5 5 5 4 4 4 4 4 6 6 7 7 6 6 8 8 9 10 11 11 11 12 12 12 12 13 13 14 15 16 18 18 19 18
13 14 13 12 13 14 13 15 15 15 14 15 13 12 12 12 11 11 10 9 9 8 9 8 8 6 6 6 5 4 3 4 3 4 5 5 6 6 7 7 7 7 8 9 9 10 10 11 11 11 12 12 13 14 14 14 16 18 18 18 19 19
12 14 15 15 14 14 14 14 15 16 16 16 14 13 12 10 11 11 10 10 9 8 9 8 7 6 6 4 4 3 3 3 3 4 4 5 6 6 7 7 7 8 8 9 9 10 10 10 11 11 12 11 12 13 15 16 17 18 19 20 20 21
14 15 15 16 15 17 17 15 15 13 12 12 13 12 12 12 12 11 11 10 9 9 8 7 6 6 5 5 4 4 4 4 4 4 4 5 6 5 6 7 7 8 9 9 9 10 9 9 9 8 8 11 14 15 16 17 17 18 19 19 19 19
14 15 16 16 19 19 18 16 16 16 16 15 14 13 12 12 11 12 11 10 9 8 8 7 6 6 5 5 4 4 4 3 3 4 5 5 6 6 6 7 7 8 9 9 9 9 8 9 8 11 18 19 16 17 17 16 18 18 19 20 21 21
14 14 16 18 19 21 19 18 17 16 15 14 14 13 13 11 11 10 10 10 9 8 8 7 7 6 6 5 4 4 3 4 4 4 5 5 5 6 6 6 7 8 7 8 9 9 9 9 9 17 20 22 24 19 18 18 18 18 19 19 20 21
15 17 19 19 19 20 18 17 16 16 16 15 15 13 12 11 11 11 9 9 9 8 8 7 7 6 5 5 5 4 4 4 4 5 5 5 5 5 5 6 7 7 7 7 8 10 10 11 14 20 21 23 24 23 18 18 17 17 18 19 19 20
18 19 18 17 17 19 20 19 16 18 17 16 14 12 12 11 10 10 9 9 9 9 8 7 7 6 5 5 5 4 4 4 5 5 5 5 5 5 5 6 6 7 7 8 10 11 11 11 16 21 23 24 25 26 23 16 17 17 18 19 20 20
12 15 18 18 19 19 17 17 18 15 13 13 12 13 11 11 10 9 9 9 8 8 8 7 6 6 6 5 4 4 4 4 5 4 4 4 4 4 5 5 6 6 7 8 10 11 11 12 16 22 24 25 26 26 23 17 18 17 18 19 18 18
13 12 12 14 15 15 15 14 13 12 12 12 13 11 11 9 10 9 9 9 8 8 7 7 6 6 6 5 5 5 4 5 4 4 4 4 4 4 4 5 5 7 8 9 9 10 11 11 19 24 26 26 26 26 25 17 17 17 17 17 19 20
14 16 16 12 13 13 14 15 13 14 13 11 12 11 10 10 10 9 9 9 8 8 7 7 7 6 6 5 5 5 4 5 4 4 3 3 3 3 4 5 6 7 9 9 10 10 12 12 20 24 25 26 26 29 19 16 16 16 16 18 20 20
11 10 11 13 14 14 15 13 13 12 12 11 9 11 11 10 10 10 9 9 9 8 8 7 7 6 6 6 5 5 5 4 4 4 3 3 3 3 4 5 6 7 9 11 11 11 12 12 18 23 25 26 28 23 15 15 15 16 18 18 18 19
7 9 13 14 13 13 11 13 13 13 12 11 11 11 11 10 10 10 10 9 9 8 7 7 7 6 6 6 5 4 4 3 3 3 2 2 2 4 5 5 6 7 7 9 11 10 13 15 19 23 25 26 26 24 17 16 15 18 17 15 19 18
11 11 11 13 13 12 13 15 15 13 13 12 12 11 11 11 10 11 10 10 9 8 7 6 6 6 6 5 5 4 4 3 4 3 2 1 2 4 4 5 6 7 8 9 11 16 17 15 16 23 24 25 25 22 16 16 15 14 16 18 19 19
14 13 14 16 15 14 16 16 15 13 12 12 12 12 11 11 10 10 9 9 9 8 7 6 6 6 5 5 4 4 4 3 3 2 1 2 2 3 4 5 6 9 9 10 11 12 13 15 16 18 25 25 27 27 18 16 15 16 17 16 16 16
14 16 17 12 14 13 11 12 14 14 12 12 12 12 9 9 9 10 10 9 8 8 7 6 6 5 5 4 5 4 3 2 2 1 0 1 2 3 4 6 6 8 10 10 11 11 12 13 16 18 24 26 26 27 24 15 16 16 17 16 17 16
10 11 11 12 14 14 13 13 21 12 11 11 11 10 9 10 9 9 9 9 8 8 7 6 6 5 4 4 4 4 3 2 2 1 1 1 2 4 5 6 7 8 9 10 11 11 12 14 19 17 22 26 27 27 29 20 16 19 19 21 17 18
13 14 15 12 13 12 13 20 23 16 9 9 10 10 10 9 8 8 8 8 8 7 6 7 7 5 4 4 4 4 2 2 2 1 1 1 2 3 7 7 8 9 11 10 9 9 11 12 13 20 20 24 26 28 27 28 24 30 20 17 19 18
10 14 14 12 11 12 14 25 24 19 13 11 9 10 10 9 9 8 8 8 8 8 7 7 7 6 4 4 3 3 3 1 1 2 2 2 2 3 6 7 8 10 10 10 10 10 10 11 12 17 22 21 27 26 28 28 29 29 20 18 16 17
17 16 13 10 10 8 15 15 20 19 17 10 10 11 11 10 10 9 9 9 10 9 8 7 6 5 4 3 3 3 3 1 1 3 3 3 2 3 5 6 8 9 8 10 11 11 11 11 13 13 16 25 24 27 27 28 30 28 28 19 15 16
19 16 15 11 10 12 16 14 17 25 14 12 10 11 11 11 11 11 10 8 8 9 8 9 7 5 3 2 2 2 2 2 2 3 3 2 2 3 5 8 8 7 9 10 10 11 12 13 13 11 14 16 20 21 25 28 27 27 27 24 19 25
16 17 18 18 12 11 11 13 9 11 12 13 12 11 11 10 11 11 9 10 9 7 7 7 6 5 4 2 2 2 2 2 2 3 3 1 2 4 6 7 7 8 9 10 11 12 12 12 11 12 13 13 14 14 17 18 18 22 22 17 15 18
20 18 18 16 14 12 13 15 15 10 11 11 11 11 11 11 10 10 10 10 7 6 6 6 7 6 4 3 3 3 3 2 3 3 2 0 2 4 6 7 8 8 9 9 10 11 11 12 11 12 14 16 16 16 16 15 16 16 15 15 16 17
18 19 19 15 14 13 13 14 11 11 12 11 11 13 13 10 9 9 10 8 6 6 5 5 5 3 4 3 3 2 2 2 2 3 1 3 3 5 6 6 7 7 8 8 10 11 11 11 11 13 19 19 23 20 18 17 17 16 15 19 25 17
19 20 18 14 14 13 14 13 11 11 10 11 12 11 12 11 10 9 8 6 6 7 6 6 5 4 4 3 2 2 2 4 5 4 2 2 5 8 10 9 6 8 8 7 8 8 10 12 14 23 26 25 26 27 27 25 26 24 21 25 27 17
16 19 20 15 14 14 13 12 12 11 10 11 12 11 12 12 10 7 6 6 5 6 6 6 6 4 4 3 3 2 1 1 3 0 5 5 5 8 9 9 10 12 12 10 8 9 16 19 22 23 24 25 25 26 27 26 26 26 26 26 18 11
20 22 20 16 15 15 12 13 12 13 16 16 14 10 11 11 10 9 8 7 7 8 6 5 5 5 4 4 3 1 2 3 2 1 5 4 6 8 7 7 11 13 13 14 14 13 9 16 21 23 23 24 25 25 27 26 25 24 26 26 20 11
18 14 16 16 15 14 13 14 14 13 15 15 15 12 13 11 8 10 9 7 8 7 6 6 5 4 4 4 3 2 3 4 4 2 1 4 5 3 2 8 13 16 15 15 16 18 17 19 21 23 23 24 24 25 25 25 23 22 24 24 15 13
17 20 17 17 18 16 15 15 14 14 14 12 12 12 10 10 8 9 8 8 8 8 7 6 5 5 4 4 3 3 4 4 3 2 2 5 8 9 5 4 13 17 19 17 18 20 20 21 22 22 23 23 24 24 24 22 16 17 19 17 12 12
21 16 15 15 15 15 16 15 13 14 15 14 12 11 9 9 9 7 7 10 8 7 7 6 5 5 5 4 4 4 5 5 3 1 1 1 2 3 6 8 9 14 16 13 13 18 20 21 22 21 21 22 23 23 23 19 11 14 14 14 13 13
29 18 18 18 16 16 15 15 15 16 14 16 12 11 11 10 9 9 8 8 8 7 6 6 6 5 5 5 4 4 5 5 3 1 1 0 1 3 5 5 4 5 10 14 15 19 19 20 23 21 21 21 23 22 21 13 12 13 14 14 15 14
Wind_Direction
201 201 200 197 197 192 188 182 171 172 173 177 173 171 168 164 166 168 167 168 168 173 179 184 186 193 200 211 220 228 235 239 244 250 257 266 265 265 270 277 283 286 288 287 286 288 287 284 281 282 281 277 276 274 277 275 269 267 264 264 263 263
203 200 196 193 191 184 180 172 169 178 175 172 171 162 160 162 165 162 163 166 166 166 169 178 182 187 199 208 216 228 235 243 249 256 261 263 270 272 278 281 284 288 290 288 287 286 287 284 282 283 283 281 280 281 275 273 270 268 267 268 266 264
198 198 195 191 184 181 175 175 179 178 174 174 169 165 164 164 162 161 162 160 168 169 175 177 177 189 198 208 221 232 241 247 250 256 264 276 272 279 283 283 284 286 284 285 284 285 285 284 283 282 282 280 280 278 277 277 273 270 270 271 271 266
191 190 186 177 174 178 179 177 174 177 176 175 167 163 164 163 163 166 158 160 168 172 176 177 178 187 198 208 219 232 238 247 252 258 270 269 276 281 282 281 282 279 283 286 285 284 284 284 285 285 282 280 281 282 283 282 278 274 273 273 270 270
188 188 186 188 188 185 179 175 181 179 176 170 169 164 166 163 160 159 157 162 166 172 172 175 182 187 199 210 224 229 238 248 256 261 267 275 282 283 278 282 283 283 287 288 287 288 287 286 285 285 283 283 284 283 281 279 280 279 278 276 274 274
179 179 187 188 187 182 182 181 179 176 174 171 165 168 161 159 157 156 156 160 165 167 172 178 182 189 199 211 221 228 240 250 260 268 270 278 281 280 284 284 286 290 289 290 288 286 287 286 285 285 284 284 284 283 283 282 281 280 277 278 278 277
189 196 194 192 189 183 181 180 180 175 175 169 169 164 160 155 156 156 159 163 164 171 176 180 182 190 200 209 219 231 245 254 263 266 274 278 280 285 290 288 289 288 288 287 288 288 286 285 286 285 284 284 283 282 284 284 283 280 278 277 276 277
196 195 195 192 189 184 182 181 179 176 172 173 167 159 157 157 155 157 158 163 167 171 178 178 183 191 198 204 219 231 240 251 261 268 278 280 282 287 282 285 287 285 287 284 284 284 283 282 284 285 286 286 284 282 282 283 282 282 281 276 274 273
202 200 196 193 187 184 183 181 178 175 171 169 167 161 158 157 157 158 159 164 169 171 178 178 183 184 189 197 209 217 232 245 259 270 274 280 280 279 282 281 284 283 282 281 281 280 282 284 284 285 284 285 287 287 284 284 287 286 281 273 271 270
201 200 197 190 190 184 184 184 180 175 173 170 165 162 158 157 158 157 161 164 172 176 175 177 177 178 185 188 196 214 234 247 254 261 268 271 272 271 276 282 283 285 280 281 280 281 283 286 287 287 287 286 288 290 291 288 284 279 275 273 271 270
203 199 193 192 185 186 184 180 177 171 170 164 164 162 162 157 156 159 163 169 173 174 170 166 170 174 175 185 193 210 217 230 251 255 263 264 265 271 273 276 280 280 279 279 280 285 286 286 284 284 285 295 295 290 287 287 286 286 285 283 281 279
202 193 191 188 190 186 184 182 179 177 171 169 166 164 161 157 160 159 165 170 172 164 163 162 162 167 170 179 193 200 208 224 242 251 256 261 263 268 275 276 277 275 279 284 287 289 286 283 283 281 290 291 291 293 293 291 289 287 285 285 284 281
199 192 190 193 189 188 185 183 178 172 169 166 164 163 160 158 155 161 166 167 162 158 157 162 165 167 176 181 185 193 204 227 236 250 256 258 264 268 273 271 272 279 282 288 291 292 289 285 284 287 295 296 296 296 294 292 288 285 283 283 283 284
197 195 197 194 190 185 182 178 173 170 173 165 164 158 154 154 156 159 163 156 155 157 159 162 162 168 177 176 190 192 202 224 238 246 252 259 264 266 268 273 274 283 291 290 293 292 293 291 287 295 298 299 299 297 295 293 291 289 285 284 282 282
199 198 196 189 186 185 186 174 166 175 170 162 160 141 151 153 154 157 156 156 156 158 160 160 164 169 175 185 180 189 206 220 235 242 246 251 259 265 267 275 286 288 294 295 299 297 294 291 291 297 302 302 302 301 300 294 289 287 286 287 287 286
200 197 192 187 187 185 174 170 171 167 152 142 135 144 147 148 154 155 154 154 157 159 159 162 164 173 176 175 178 193 209 217 231 238 249 249 252 256 271 277 283 288 295 299 297 296 294 293 295 303 305 307 306 305 302 295 295 293 291 289 287 286
195 185 181 184 174 163 155 159 155 136 129 138 142 147 145 151 150 154 156 155 159 158 161 164 168 172 174 175 182 197 209 220 230 239 243 240 247 257 272 284 289 292 291 292 295 295 295 291 300 307 308 309 308 306 306 302 298 292 288 286 286 286
189 187 187 161 147 157 158 159 145 139 145 142 143 145 149 150 153 154 154 156 162 163 166 165 168 171 173 174 185 194 212 215 224 234 245 249 256 267 275 282 289 291 297 297 295 295 296 294 302 307 307 307 307 308 306 298 291 289 291 291 291 287
180 167 142 152 158 150 159 145 138 135 133 143 143 145 149 151 153 157 159 161 162 165 164 167 166 167 169 179 183 194 209 213 226 237 233 251 273 281 288 288 293 304 306 306 307 297 292 293 298 303 306 308 310 309 301 298 297 295 293 290 290 290
143 138 152 149 149 151 139 132 139 140 142 145 148 150 153 157 162 160 160 161 162 164 161 165 163 164 173 176 183 193 207 213 234 224 234 246 293 295 292 295 294 297 302 301 292 285 293 296 297 303 309 311 308 308 307 304 300 296 288 286 290 290
149 135 127 137 144 148 134 138 142 142 148 149 154 155 157 168 163 161 160 158 154 154 152 157 162 168 171 174 182 193 211 215 218 227 231 271 280 285 292 302 299 303 303 289 281 285 293 291 296 303 307 309 312 313 309 303 295 286 289 286 283 280
122 140 154 164 161 140 146 147 152 149 146 152 151 159 168 168 162 151 142 140 145 147 151 156 163 168 168 169 182 200 212 213 222 216 272 305 291 301 309 311 312 308 298 297 296 299 299 300 299 301 306 310 312 312 310 306 301 297 294 293 288 284
157 165 167 154 139 142 141 144 145 153 149 148 155 167 160 142 136 134 136 137 139 143 149 150 162 170 168 170 186 193 202 209 218 243 331 309 312 315 312 305 297 308 315 310 307 301 301 299 303 306 309 312 314 316 318 312 309 307 305 303 303 299
140 128 132 137 141 146 151 148 141 134 142 147 159 149 121 123 131 130 133 138 138 138 142 148 156 163 160 176 192 195 187 185 200 234 76 347 337 324 314 310 318 319 314 313 307 303 302 303 304 307 310 314 315 313 314 315 313 315 312 308 303 303
154 161 147 143 139 144 153 138 131 132 129 143 126 116 120 125 127 129 132 129 130 135 143 152 158 156 157 178 190 176 174 184 174 154 132 54 351 325 331 330 329 324 318 312 309 307 307 308 309 313 316 316 316 318 320 319 318 318 316 308 305 306
130 119 117 125 139 147 158 160 157 147 149 131 115 119 117 125 129 132 129 130 133 141 148 156 154 146 155 178 187 167 155 174 166 125 77 39 3 340 336 335 329 323 315 315 317 313 312 313 314 315 316 318 320 323 323 321 321 321 316 311 307 308
151 144 143 150 139 119 122 145 133 125 136 123 130 136 135 136 137 136 136 143 150 151 151 153 149 141 156 177 176 163 155 189 140 96 69 51 1 339 331 324 323 311 312 319 318 316 315 316 317 314 320 323 325 327 326 325 325 323 320 315 311 310
127 134 133 135 135 140 143 141 145 144 141 138 142 145 142 139 139 141 148 147 148 154 153 145 133 136 152 180 157 141 139 151 123 87 66 38 341 326 321 317 305 306 323 319 318 318 317 319 313 319 324 323 331 329 329 329 327 324 321 319 315 318
146 149 148 147 157 147 147 138 143 126 134 147 146 143 140 138 137 137 143 150 148 150 155 142 142 145 158 170 156 144 150 167 119 96 79 40 326 317 308 301 313 327 323 320 319 319 321 320 323 330 327 331 332 333 333 334 330 326 325 322 322 330
157 156 153 150 153 152 143 139 133 135 135 137 138 135 134 138 142 145 150 150 151 156 152 134 135 146 147 149 151 146 155 155 132 106 112 133 307 305 309 322 325 327 324 321 320 321 324 323 329 333 334 339 338 337 337 335 332 331 331 329 327 337
160 158 155 150 151 147 145 135 129 136 142 139 134 142 140 138 137 131 141 148 147 141 135 128 142 148 141 145 136 138 162 171 138 123 170 240 234 277 307 312 320 322 322 322 320 327 322 327 334 334 336 339 340 340 340 339 338 335 338 338 339 335
151 155 153 150 151 147 140 133 133 139 139 137 144 146 135 134 136 138 146 158 151 138 137 134 138 145 147 139 124 135 170 194 181 184 196 259 300 323 326 325 328 330 329 323 324 331 326 332 333 335 339 342 342 343 343 343 342 341 344 348 345 334
162 147 144 151 148 141 134 132 139 136 139 145 152 149 142 138 139 140 147 157 155 150 138 138 138 147 142 136 132 152 129 72 48 206 232 246 303 324 330 344 346 343 340 337 335 333 334 336 339 341 343 344 344 343 344 347 346 346 351 354 350 342
168 168 159 148 148 142 140 138 144 149 155 159 158 153 149 153 145 150 159 155 145 140 134 128 131 133 131 115 114 129 112 96 88 108 193 192 346 335 336 349 355 354 354 350 353 349 338 345 347 347 347 346 344 344 345 346 346 350 354 353 357 359
175 147 143 152 146 141 143 143 152 153 157 158 156 153 155 161 149 141 145 144 138 134 129 130 130 129 121 116 112 98 72 68 46 22 340 208 213 301 337 3 2 359 1 357 358 357 352 352 351 350 350 348 346 345 345 344 342 347 353 356 2 359
138 155 151 150 152 147 146 143 149 155 153 150 152 156 153 149 144 138 145 149 145 136 136 132 133 127 117 110 107 105 90 81 83 63 349 336 338 346 338 344 1 360 357 356 357 356 355 356 355 353 351 349 347 348 346 346 338 342 355 7 1 351
151 151 155 145 141 144 147 147 148 152 151 152 147 142 136 139 132 123 110 118 125 125 126 127 129 125 120 120 122 113 102 102 97 100 49 3 337 318 316 316 328 343 350 353 354 353 354 355 356 352 350 350 349 350 348 344 346 355 352 357 2 356
152 148 142 149 150 149 141 141 149 152 151 152 140 135 137 139 138 133 137 135 121 115 118 121 127 129 124 130 123 113 109 107 124 127 144 206 253 271 286 285 308 311 313 344 355 356 353 353 352 349 349 350 351 353 353 358 356 354 353 352 354 350